Location: Oroua River
(40.4333°S, 175.4333°E)
Time: 15:36:48
(UTC+00:00)

YAOGAN 11 - Pass Details

Date: 03 February 2023
Orbit: 610 x 664 km, 98.4° (Epoch: 22 March)

Event Time Altitude Azimuth Distance (km) Brightness Sun altitude
Rises 16:13:19 0° 168° (SSE) 2,967 8.3 -13.4°
Reaches altitude 10° 16:15:31 10° 168° (SSE) 2,059 7.5 -13.1°
Maximum altitude 16:20:01 86° 254° (WSW) 662 4.1 -12.4°
Drops below altitude 10° 16:24:32 10° 344° (NNW) 2,064 6.3 -11.6°
Enters shadow 16:24:49 - 344° (NNW) 2,180 6.4 -11.6°
